Tracking 20942 objects as of 4-Jul-2020
HD Live streaming from Space Station
objects crossing your sky now

COSMOS 2251 DEB

Track COSMOS 2251 DEB now!
10-day predictions


NORAD ID: 37484
Int'l Code: 1993-036BLM
Perigee: 759.6 km
Apogee: 827.9 km
Inclination: 73.8 °
Period: 100.6 minutes
Semi major axis: 7164 km
RCS: 0.0078 m2 (small)
Launch date: June 16, 1993
Source: Commonwealth of Independent States (former USSR) (CIS)
Launch site: PLESETSK MISSILE AND SPACE COMPLEX (PKMTR)

Note: This is SATELLITE DEBRIS
aabbcc
Your satellite tracking list
Your tracking list is empty




NASA's NSSDC Master Catalog

Two Line Element Set (TLE):
1 37484U 93036BLM 20185.66871590  .00000180  00000-0  77162-4 0  9991
2 37484  73.8294 297.4348 0047723 343.8003  80.2006 14.31531739562996
Source of the keplerian elements: AFSPC